When you browse on this site, cookies collect data to enhance your experience and personalize the content and advertising you see.
Visit our Privacy Policy to learn more. By continuing to use the site, you agree to this use of cookies and data.
  • In Austria
  • List of Countries
  • For 7 days
  • Water Temperature
  • Satellite Maps
  • Weather Map
  • News
  • Weather Widgets
  • user-avatar
    Login

    Hourly Weather Culver City

    Today, 21 April, Sunday

    Time Temperature Precipitation Wind Pressure Humidity
    00:00 +16°C° 0 mm 2 mps 758 mmHg 79%
    01:00 +16°C° 0 mm 2 mps 758 mmHg 80%
    02:00 +16°C° 0 mm 2 mps 758 mmHg 80%
    03:00 +16°C° 0 mm 2 mps 758 mmHg 81%
    04:00 +16°C° 0 mm 2 mps 758 mmHg 81%
    05:00 +16°C° 0 mm 2 mps 758 mmHg 79%
    06:00 +16°C° 0 mm 1 mps 758 mmHg 78%
    07:00 +16°C° 0 mm 1 mps 758 mmHg 76%
    08:00 +17°C° 0 mm 2 mps 759 mmHg 69%
    09:00 +19°C° 0 mm 2 mps 759 mmHg 63%
    10:00 +20°C° 0 mm 3 mps 759 mmHg 56%
    11:00 +20°C° 0 mm 3 mps 759 mmHg 53%
    12:00 +21°C° 0 mm 4 mps 758 mmHg 51%
    13:00 +21°C° 0 mm 4 mps 758 mmHg 48%
    14:00 +21°C° 0 mm 4 mps 758 mmHg 50%
    15:00 +21°C° 0 mm 3 mps 758 mmHg 52%
    16:00 +21°C° 0 mm 3 mps 757 mmHg 53%
    17:00 +20°C° 0 mm 3 mps 757 mmHg 57%
    18:00 +20°C° 0 mm 2 mps 757 mmHg 61%
    19:00 +19°C° 0 mm 2 mps 758 mmHg 65%
    20:00 +18°C° 0 mm 2 mps 758 mmHg 66%
    21:00 +18°C° 0 mm 2 mps 758 mmHg 68%
    22:00 +18°C° 0 mm 2 mps 759 mmHg 69%
    23:00 +17°C° 0 mm 2 mps 759 mmHg 69%

    Tomorrow, 22 April, Monday

    Time Temperature Precipitation Wind Pressure Humidity
    00:00 +17°C° 0 mm 2 mps 758 mmHg 68%
    01:00 +17°C° 0 mm 2 mps 758 mmHg 68%
    02:00 +17°C° 0 mm 2 mps 758 mmHg 68%
    03:00 +16°C° 0 mm 1 mps 758 mmHg 68%
    04:00 +16°C° 0 mm 1 mps 758 mmHg 68%
    05:00 +18°C° 0 mm 1 mps 759 mmHg 66%
    06:00 +18°C° 0 mm 1 mps 759 mmHg 64%
    07:00 +19°C° 0 mm 1 mps 759 mmHg 61%
    08:00 +20°C° 0 mm 2 mps 759 mmHg 55%
    09:00 +21°C° 0 mm 2 mps 759 mmHg 49%
    10:00 +24°C° 0 mm 2 mps 759 mmHg 43%
    11:00 +25°C° 0 mm 3 mps 759 mmHg 42%
    12:00 +26°C° 0 mm 4 mps 759 mmHg 40%
    13:00 +27°C° 0 mm 4 mps 758 mmHg 39%
    14:00 +27°C° 0 mm 4 mps 758 mmHg 39%
    15:00 +27°C° 0 mm 4 mps 757 mmHg 39%
    16:00 +26°C° 0 mm 4 mps 757 mmHg 39%
    17:00 +25°C° 0 mm 4 mps 757 mmHg 42%
    18:00 +24°C° 0 mm 3 mps 757 mmHg 45%
    19:00 +23°C° 0 mm 2 mps 757 mmHg 48%
    20:00 +23°C° 0 mm 2 mps 758 mmHg 51%
    21:00 +21°C° 0 mm 2 mps 758 mmHg 53%
    22:00 +21°C° 0 mm 2 mps 759 mmHg 55%
    23:00 +20°C° 0 mm 2 mps 759 mmHg 57%

    Day after tomorrow, 23 April, Tuesday

    Time Temperature Precipitation Wind Pressure Humidity
    00:00 +20°C° 0 mm 2 mps 758 mmHg 58%
    01:00 +20°C° 0 mm 1 mps 758 mmHg 60%
    02:00 +20°C° 0 mm 1 mps 758 mmHg 58%
    03:00 +20°C° 0 mm 1 mps 758 mmHg 57%
    04:00 +20°C° 0 mm 1 mps 758 mmHg 55%
    05:00 +21°C° 0 mm 1 mps 758 mmHg 52%
    06:00 +22°C° 0 mm 1 mps 758 mmHg 49%
    07:00 +22°C° 0 mm 1 mps 759 mmHg 45%
    08:00 +24°C° 0 mm 2 mps 759 mmHg 40%
    09:00 +26°C° 0 mm 2 mps 759 mmHg 35%
    10:00 +28°C° 0 mm 3 mps 759 mmHg 29%
    11:00 +29°C° 0 mm 3 mps 759 mmHg 27%
    12:00 +30°C° 0 mm 4 mps 758 mmHg 26%
    13:00 +32°C° 0 mm 4 mps 758 mmHg 24%
    14:00 +32°C° 0 mm 4 mps 757 mmHg 24%
    15:00 +32°C° 0 mm 4 mps 757 mmHg 23%
    16:00 +32°C° 0 mm 5 mps 757 mmHg 23%
    17:00 +29°C° 0 mm 4 mps 757 mmHg 26%
    18:00 +28°C° 0 mm 3 mps 757 mmHg 29%
    19:00 +27°C° 0 mm 3 mps 757 mmHg 31%
    20:00 +26°C° 0 mm 2 mps 758 mmHg 35%
    21:00 +25°C° 0 mm 2 mps 758 mmHg 39%
    22:00 +24°C° 0 mm 2 mps 759 mmHg 43%
    23:00 +23°C° 0 mm 1 mps 758 mmHg 44%

    24 April, Wednesday

    Time Temperature Precipitation Wind Pressure Humidity
    00:00 +23°C° 0 mm 1 mps 758 mmHg 46%
    01:00 +23°C° 0 mm 1 mps 758 mmHg 47%
    02:00 +22°C° 0 mm 1 mps 758 mmHg 47%
    03:00 +22°C° 0 mm 1 mps 758 mmHg 47%
    04:00 +22°C° 0 mm 1 mps 758 mmHg 47%
    05:00 +22°C° 0 mm 1 mps 758 mmHg 45%
    06:00 +23°C° 0 mm 1 mps 758 mmHg 43%
    07:00 +24°C° 0 mm 1 mps 759 mmHg 41%
    08:00 +25°C° 0 mm 1 mps 759 mmHg 38%
    09:00 +27°C° 0 mm 2 mps 759 mmHg 34%
    10:00 +28°C° 0 mm 2 mps 759 mmHg 31%
    11:00 +29°C° 0 mm 2 mps 759 mmHg 30%
    12:00 +30°C° 0 mm 3 mps 758 mmHg 28%
    13:00 +31°C° 0 mm 3 mps 758 mmHg 27%
    14:00 +30°C° 0 mm 3 mps 757 mmHg 28%
    15:00 +30°C° 0 mm 3 mps 757 mmHg 28%
    16:00 +30°C° 0 mm 3 mps 757 mmHg 29%
    17:00 +29°C° 0 mm 3 mps 757 mmHg 32%
    18:00 +27°C° 0 mm 2 mps 757 mmHg 34%
    19:00 +26°C° 0 mm 2 mps 757 mmHg 37%
    20:00 +25°C° 0 mm 2 mps 758 mmHg 39%
    21:00 +25°C° 0 mm 1 mps 758 mmHg 41%
    22:00 +24°C° 0 mm 1 mps 758 mmHg 43%
    23:00 +24°C° 0 mm 1 mps 758 mmHg 45%

    25 April, Thursday

    Time Temperature Precipitation Wind Pressure Humidity
    00:00 +23°C° 0 mm 1 mps 758 mmHg 46%
    01:00 +23°C° 0 mm 1 mps 758 mmHg 48%
    02:00 +22°C° 0 mm 1 mps 758 mmHg 48%
    03:00 +22°C° 0 mm 1 mps 758 mmHg 48%
    04:00 +20°C° 0 mm 0 mps 758 mmHg 48%
    05:00 +22°C° 0 mm 1 mps 758 mmHg 46%
    06:00 +23°C° 0 mm 1 mps 758 mmHg 44%
    07:00 +24°C° 0 mm 1 mps 758 mmHg 41%
    08:00 +25°C° 0 mm 1 mps 758 mmHg 38%
    09:00 +26°C° 0 mm 2 mps 758 mmHg 34%
    10:00 +28°C° 0 mm 2 mps 758 mmHg 30%
    11:00 +28°C° 0 mm 2 mps 758 mmHg 29%
    12:00 +29°C° 0 mm 3 mps 758 mmHg 27%
    13:00 +30°C° 0 mm 3 mps 757 mmHg 26%
    14:00 +30°C° 0 mm 3 mps 757 mmHg 26%
    15:00 +29°C° 0 mm 3 mps 757 mmHg 27%
    16:00 +29°C° 0 mm 3 mps 757 mmHg 27%
    17:00 +28°C° 0 mm 3 mps 757 mmHg 31%
    18:00 +27°C° 0 mm 2 mps 757 mmHg 34%
    19:00 +25°C° 0 mm 2 mps 757 mmHg 38%
    20:00 +25°C° 0 mm 2 mps 758 mmHg 40%
    21:00 +24°C° 0 mm 1 mps 758 mmHg 41%
    22:00 +24°C° 0 mm 1 mps 758 mmHg 43%
    23:00 +23°C° 0 mm 1 mps 758 mmHg 44%

    26 April, Friday

    Time Temperature Precipitation Wind Pressure Humidity
    00:00 +23°C° 0 mm 1 mps 758 mmHg 46%
    01:00 +22°C° 0 mm 1 mps 758 mmHg 47%
    02:00 +22°C° 0 mm 1 mps 758 mmHg 48%
    03:00 +22°C° 0 mm 1 mps 758 mmHg 50%
    04:00 +21°C° 0 mm 1 mps 758 mmHg 51%
    05:00 +22°C° 0 mm 1 mps 758 mmHg 50%
    06:00 +22°C° 0 mm 1 mps 758 mmHg 48%
    07:00 +22°C° 0 mm 1 mps 758 mmHg 47%
    08:00 +24°C° 0 mm 1 mps 758 mmHg 43%
    09:00 +25°C° 0 mm 2 mps 758 mmHg 39%
    10:00 +26°C° 0 mm 2 mps 758 mmHg 35%
    11:00 +27°C° 0 mm 2 mps 758 mmHg 33%
    12:00 +27°C° 0 mm 3 mps 758 mmHg 32%
    13:00 +28°C° 0 mm 3 mps 757 mmHg 31%
    14:00 +27°C° 0 mm 3 mps 757 mmHg 33%
    15:00 +27°C° 0 mm 3 mps 757 mmHg 35%
    16:00 +27°C° 0 mm 3 mps 757 mmHg 37%
    17:00 +26°C° 0 mm 3 mps 757 mmHg 41%
    18:00 +24°C° 0 mm 2 mps 757 mmHg 45%
    19:00 +23°C° 0 mm 2 mps 758 mmHg 49%
    20:00 +23°C° 0 mm 2 mps 758 mmHg 51%
    21:00 +22°C° 0 mm 1 mps 758 mmHg 53%
    22:00 +22°C° 0 mm 1 mps 758 mmHg 55%
    23:00 +21°C° 0 mm 1 mps 758 mmHg 57%
    Show more